[[{"header":{"parameterUnit":"m.s-1","parameterCategory":1,"la1":30.2991,"la2":30.254,"lo1":-89.0895,"lo2":-89.0444,"dy":0.0017,"dx":0.0017,"nx":28,"ny":28,"refTime":"2024-05-15T21:00:00:Z","depth":0,"parameterNumber":2,"parameterNumberName":"U-component_of_WINDS"},"data":[0,0,0,0,0,0,0,0,0,0,0,0,0,0,0,0,0,0,0,0,0,0,0,0,0,0,0,0,0,0,0,0,0,0,0,0,0,0,0,0,0,0,0,0,0,0,0,0,0,0,0,0,0,0,0,0,0,0,-0.1167,-0.1167,0,-0.1204,-0.1204,-0.1204,-0.1259,-0.126,-0.1261,-0.1262,-0.1297,-0.1297,-0.1297,0,0,0,0,0,0,0,0,0,0,0,0,0,-0.1143,-0.1143,-0.1167,-0.1167,-0.1168,-0.1204,-0.1204,-0.1205,-0.1259,-0.126,-0.1262,-0.1263,-0.1297,-0.1297,-0.1297,0,0,0,0,0,0,0,0,0,0,0,0,0,-0.1164,-0.1143,-0.1167,-0.1199,-0.1203,-0.1203,-0.1204,-0.1205,-0.1259,-0.126,-0.1262,-0.1263,-0.1297,-0.1297,-0.1297,-0.1268,0,0,-0.1297,-0.1297,0,0,0,0,0,0,0,0,-0.1162,-0.1165,-0.1194,-0.1197,-0.1201,-0.1229,-0.1209,-0.1226,-0.1259,-0.1238,-0.1262,-0.1264,-0.1273,-0.1275,-0.1279,-0.127,-0.1271,-0.1297,-0.1297,-0.1297,-0.1297,0,0,0,0,0,0,0,-0.1161,-0.1163,-0.1181,-0.1195,-0.1199,-0.1212,-0.1217,-0.1212,-0.1246,-0.124,-0.1244,-0.1247,-0.1275,-0.1279,-0.128,-0.1272,-0.1297,-0.1297,-0.1297,-0.1297,-0.1242,-0.124,0,0,0,0,0,0,-0.1155,-0.1162,-0.118,-0.1182,-0.1185,-0.1211,-0.1216,-0.1218,-0.1247,-0.1253,-0.1246,-0.125,-0.1278,-0.128,-0.1281,-0.1249,-0.1297,-0.1297,-0.1297,-0.1243,-0.1242,-0.124,0,0,0,0,0,0,-0.1154,-0.1156,-0.1179,-0.1173,-0.1177,-0.121,-0.1212,-0.1218,-0.1222,-0.1252,-0.1258,-0.1243,-0.1279,-0.1281,-0.1271,-0.1251,-0.1297,-0.1297,-0.1245,-0.1243,-0.1241,-0.1185,0,0,0,0,0,0,-0.1153,-0.1155,-0.1145,-0.1173,-0.1177,-0.1168,-0.121,-0.1218,-0.1222,-0.1227,-0.1251,-0.1256,-0.128,-0.1271,-0.1271,-0.1252,-0.1297,-0.1247,-0.1244,-0.1241,-0.1188,-0.1181,-0.1174,0,0,0,0,0,-0.1152,-0.1127,-0.1144,-0.1146,-0.1165,-0.1167,-0.117,-0.1199,-0.122,-0.1209,-0.1229,-0.1255,-0.1254,-0.127,-0.127,-0.1251,-0.1248,-0.1245,-0.1242,-0.1192,-0.1182,-0.1174,0,0,0,0,0,0,-0.1094,-0.1131,-0.115,-0.1133,-0.1147,-0.1176,-0.1164,-0.1188,-0.1195,-0.1199,-0.1235,-0.1239,-0.1225,-0.1237,-0.1254,-0.1225,-0.1255,-0.1252,-0.1217,-0.1208,-0.1201,-0.1198,-0.1298,0,0,0,0,0,-0.108,-0.1079,-0.1111,-0.1093,-0.1099,-0.113,-0.1132,-0.1154,-0.1169,-0.1174,-0.1193,-0.1206,-0.1209,-0.121,-0.1214,-0.1191,-0.1197,-0.1178,-0.1171,-0.1165,-0.1161,-0.1151,-0.1143,-0.1229,-0.1229,-0.1229,0,0,-0.1049,-0.1069,-0.1066,-0.1082,-0.1095,-0.1093,-0.1134,-0.113,-0.1129,-0.1173,-0.1165,-0.118,-0.1197,-0.1181,-0.1174,-0.119,-0.1139,-0.1161,-0.1156,-0.1155,-0.1147,-0.1138,-0.1131,-0.1227,-0.1227,-0.1227,0,0,-0.0992,-0.1008,-0.0995,-0.1007,-0.1027,-0.1048,-0.1045,-0.1071,-0.1083,-0.1076,-0.1109,-0.1109,-0.1112,-0.1123,-0.1129,-0.1079,-0.1103,-0.1079,-0.1041,-0.1031,-0.1024,-0.1018,-0.0999,-0.0992,-0.1075,-0.1075,-0.1075,0,-0.0951,-0.0951,-0.0984,-0.0979,-0.0985,-0.1027,-0.1013,-0.1024,-0.1043,-0.1046,-0.1064,-0.1071,-0.1085,-0.1072,-0.106,-0.1064,-0.1061,-0.1075,-0.1022,-0.1017,-0.1012,-0.0994,-0.0987,-0.1072,-0.1073,-0.1073,-0.1073,0,-0.0899,-0.0898,-0.0885,-0.0904,-0.0909,-0.0899,-0.0931,-0.0932,-0.0954,-0.0973,-0.0966,-0.0985,-0.0994,-0.0993,-0.1013,-0.0983,-0.0992,-0.1016,-0.1047,-0.1,-0.0984,-0.0978,-0.1068,-0.1069,-0.107,-0.1071,0,0,-0.0804,-0.0844,-0.0839,-0.0848,-0.0874,-0.0874,-0.0866,-0.0876,-0.0876,-0.0889,-0.0883,-0.0886,-0.0909,-0.0916,-0.0938,-0.0929,-0.0888,-0.0954,-0.0955,-0.094,-0.0855,-0.0836,-0.0828,-0.0905,-0.0904,-0.0903,-0.0853,0,-0.0752,-0.0742,-0.0773,-0.0755,-0.0755,-0.0796,-0.0789,-0.0804,-0.0823,-0.0825,-0.0845,-0.0847,-0.0876,-0.0881,-0.0874,-0.0894,-0.0871,-0.0898,-0.0899,-0.0899,-0.0892,-0.082,-0.08,-0.0752,-0.0848,-0.0847,-0.0846,0,-0.0689,-0.0699,-0.0681,-0.0709,-0.071,-0.0704,-0.0716,-0.0718,-0.0736,-0.075,-0.0759,-0.0786,-0.0781,-0.0812,-0.0805,-0.0823,-0.0826,-0.0836,-0.0835,-0.0834,-0.0868,-0.0817,-0.0737,-0.073,-0.0837,-0.0837,-0.0838,0,-0.062,-0.063,-0.0621,-0.0628,-0.0661,-0.0655,-0.0669,-0.0689,-0.0693,-0.0704,-0.0707,-0.0716,-0.0721,-0.0728,-0.0757,-0.0777,-0.0746,-0.078,-0.0757,-0.0756,-0.0747,-0.0747,-0.0666,-0.0751,-0.0751,-0.0751,-0.0751,0,-0.0557,-0.0545,-0.0591,-0.0585,-0.0572,-0.0609,-0.0595,-0.0612,-0.063,-0.0628,-0.0664,-0.0661,-0.0701,-0.0702,-0.0725,-0.0716,-0.0718,-0.0728,-0.0734,-0.0724,-0.0723,-0.0725,-0.0729,-0.0749,-0.075,-0.075,-0.075,0,-0.0478,-0.0509,-0.0501,-0.0534,-0.0542,-0.053,-0.0558,-0.0554,-0.0576,-0.0573,-0.0574,-0.0608,-0.0612,-0.0642,-0.0652,-0.0668,-0.0649,-0.0662,-0.0643,-0.0647,-0.0622,-0.0623,-0.0538,-0.0529,-0.0621,-0.062,-0.0619,0,-0.0435,-0.0426,-0.0458,-0.046,-0.0472,-0.0474,-0.0479,-0.0516,-0.0519,-0.054,-0.0533,-0.0541,-0.0548,-0.0553,-0.0578,-0.0586,-0.0599,-0.0569,-0.06,-0.059,-0.0597,-0.0597,-0.0596,-0.0561,-0.056,-0.0559,-0.0558,0,-0.0355,-0.0372,-0.0378,-0.039,-0.0395,-0.0406,-0.0419,-0.0418,-0.0458,-0.0461,-0.0466,-0.0472,-0.0483,-0.049,-0.0503,-0.0516,-0.0543,-0.0548,-0.0543,-0.0532,-0.0521,-0.0526,-0.0623,-0.055,-0.055,-0.0551,-0.0551,-0.0552,-0.0292,-0.0287,-0.0309,-0.0315,-0.0329,-0.0341,-0.0338,-0.0361,-0.0366,-0.0379,-0.04,-0.0402,-0.0422,-0.0442,-0.0453,-0.0455,-0.0471,-0.0464,-0.0462,-0.0459,-0.0454,-0.0522,-0.0458,-0.0458,-0.0459,-0.0459,-0.0459,0,-0.0214,-0.0231,-0.0236,-0.0254,-0.0258,-0.0286,-0.0302,-0.0304,-0.0305,-0.0322,-0.0329,-0.0335,-0.0342,-0.0369,-0.0379,-0.0375,-0.0388,-0.0376,-0.0376,-0.0379,-0.044,-0.0442,-0.0366,-0.0366,-0.0366,-0.0366,-0.0366,-0.0366,-0.0173,-0.0166,-0.0184,-0.0184,-0.0201,-0.0204,-0.0211,-0.0222,-0.0235,-0.0241,-0.0247,-0.0265,-0.0286,-0.0297,-0.0305,-0.0313,-0.0314,-0.0298,-0.031,-0.0365,-0.0374,-0.0383,-0.0386,-0.0298,-0.0298,-0.0249,-0.0248,-0.0248]},{"header":{"parameterUnit":"m.s-1","parameterCategory":1,"la1":30.2991,"la2":30.254,"lo1":-89.0895,"lo2":-89.0444,"dy":0.0017,"dx":0.0017,"nx":28,"ny":28,"refTime":"2024-05-15T21:00:00:Z","depth":0,"parameterNumber":3,"parameterNumberName":"V-component_of_WINDS"},"data":[0,0,0,0,0,0,0,0,0,0,0,0,0,0,0,0,0,0,0,0,0,0,0,0,0,0,0,0,0,0,0,0,0,0,0,0,0,0,0,0,0,0,0,0,0,0,0,0,0,0,0,0,0,0,0,0,0,0,5.3453,5.3454,0,5.3543,5.3544,5.3545,5.3536,5.3534,5.3533,5.3532,5.3618,5.3621,5.3625,0,0,0,0,0,0,0,0,0,0,0,0,0,5.3268,5.3271,5.3453,5.3454,5.3456,5.3543,5.3544,5.3545,5.3536,5.3534,5.3533,5.3531,5.3617,5.3621,5.3625,0,0,0,0,0,0,0,0,0,0,0,0,0,5.3352,5.3273,5.3453,5.3462,5.3463,5.3543,5.3544,5.3546,5.3536,5.3534,5.3532,5.353,5.3615,5.362,5.3626,5.3701,0,0,5.3642,5.3644,0,0,0,0,0,0,0,0,5.3347,5.3359,5.3459,5.3461,5.3463,5.3526,5.351,5.3597,5.3537,5.3508,5.3532,5.3529,5.3589,5.3596,5.3617,5.3705,5.3708,5.3643,5.3646,5.3648,5.365,0,0,0,0,0,0,0,5.3341,5.3355,5.3489,5.3461,5.3463,5.3459,5.3469,5.3527,5.3559,5.3511,5.351,5.3521,5.3589,5.3612,5.3619,5.371,5.3642,5.3647,5.3651,5.3653,5.3863,5.3865,0,0,0,0,0,0,5.3334,5.335,5.3486,5.3491,5.3399,5.3464,5.3475,5.3508,5.3558,5.3564,5.3523,5.3521,5.3604,5.3613,5.3622,5.3714,5.3648,5.3653,5.3656,5.3861,5.3864,5.3866,0,0,0,0,0,0,5.333,5.3347,5.3482,5.3421,5.3438,5.3469,5.3507,5.3511,5.3534,5.3568,5.3573,5.3541,5.3603,5.3615,5.3682,5.3717,5.3656,5.366,5.3858,5.3862,5.3865,5.3898,0,0,0,0,0,0,5.3325,5.3345,5.3376,5.3422,5.3441,5.3542,5.3509,5.3514,5.3544,5.3541,5.3586,5.3591,5.3602,5.3674,5.3687,5.3723,5.3665,5.3855,5.386,5.3864,5.3894,5.3902,5.3909,0,0,0,0,0,5.3319,5.338,5.3377,5.3394,5.348,5.3544,5.3555,5.3568,5.3547,5.3577,5.3598,5.359,5.3711,5.3681,5.3696,5.3734,5.3853,5.3858,5.3864,5.389,5.39,5.3909,0,0,0,0,0,0,5.3335,5.3386,5.3384,5.3462,5.3499,5.3542,5.3581,5.3578,5.362,5.3616,5.3628,5.3638,5.3706,5.3726,5.3692,5.3809,5.3779,5.3787,5.3794,5.3804,5.3811,5.3805,5.3669,0,0,0,0,0,5.3348,5.3398,5.3439,5.3504,5.3523,5.3549,5.3577,5.3584,5.3622,5.3637,5.3664,5.3699,5.3745,5.3775,5.382,5.3896,5.3906,5.393,5.3937,5.3943,5.3951,5.3993,5.4004,5.3884,5.3884,5.3884,0,0,5.3375,5.3409,5.3439,5.3508,5.3538,5.3588,5.3562,5.3615,5.3652,5.3644,5.3711,5.3731,5.3771,5.3844,5.3877,5.3863,5.3986,5.395,5.3955,5.3959,5.4,5.4011,5.4021,5.3887,5.3887,5.3886,0,0,5.345,5.348,5.3539,5.3569,5.3615,5.3632,5.3646,5.369,5.3704,5.3771,5.3766,5.3808,5.3888,5.3917,5.3942,5.4028,5.4022,5.4042,5.4082,5.4123,5.4133,5.4141,5.4173,5.4184,5.4049,5.4049,5.4049,0,5.3477,5.3554,5.3568,5.3623,5.3653,5.365,5.3709,5.3737,5.3794,5.3814,5.3797,5.3897,5.3924,5.4003,5.4025,5.4045,5.406,5.4037,5.4131,5.4139,5.4148,5.4177,5.4189,5.4051,5.4051,5.4051,5.4051,0,5.3585,5.3638,5.3679,5.3737,5.3772,5.3828,5.3849,5.3882,5.3885,5.3903,5.397,5.4003,5.4054,5.4073,5.4076,5.4153,5.4143,5.4128,5.4098,5.4161,5.4189,5.4201,5.4054,5.4054,5.4053,5.4052,0,0,5.3673,5.3739,5.3754,5.378,5.3831,5.3871,5.3926,5.3978,5.4006,5.4045,5.4091,5.4159,5.4146,5.4174,5.4181,5.4216,5.4283,5.4198,5.4199,5.4213,5.437,5.4382,5.4395,5.4279,5.4281,5.4283,5.4367,0,5.3754,5.3855,5.3869,5.3957,5.4006,5.4004,5.4052,5.4087,5.4105,5.4148,5.4166,5.4215,5.4194,5.4211,5.4247,5.4268,5.4315,5.4262,5.4321,5.4323,5.4313,5.4409,5.4422,5.4499,5.4378,5.438,5.4381,0,5.3862,5.3907,5.4,5.4045,5.4066,5.4109,5.4158,5.4199,5.4238,5.4248,5.4281,5.4283,5.4338,5.4305,5.4382,5.4345,5.437,5.4384,5.4387,5.4394,5.4357,5.4419,5.4525,5.4537,5.4399,5.4397,5.4396,0,5.3918,5.4001,5.4068,5.4091,5.4144,5.4174,5.4197,5.4234,5.4265,5.4306,5.4326,5.4373,5.4399,5.4434,5.4448,5.4422,5.4524,5.4491,5.4533,5.4533,5.4555,5.4554,5.4667,5.457,5.457,5.4569,5.4569,0,5.4007,5.4065,5.4094,5.4136,5.42,5.4214,5.4277,5.4298,5.4331,5.4376,5.4375,5.4416,5.4432,5.4475,5.4485,5.4547,5.4558,5.4568,5.457,5.4569,5.4568,5.4586,5.4581,5.4573,5.4572,5.4571,5.4571,0,5.4081,5.4103,5.4177,5.4221,5.4234,5.4279,5.4316,5.4355,5.4373,5.4429,5.4442,5.4469,5.452,5.4537,5.4598,5.4605,5.4677,5.4674,5.4665,5.4666,5.4707,5.4703,5.4836,5.4854,5.4745,5.4746,5.4746,0,5.4137,5.4182,5.4232,5.4263,5.4288,5.4337,5.4368,5.4383,5.4416,5.4464,5.4497,5.4548,5.459,5.4671,5.4695,5.4741,5.474,5.4783,5.4747,5.4744,5.4741,5.4739,5.4744,5.479,5.4791,5.4792,5.4793,0,5.4235,5.4244,5.429,5.4341,5.4379,5.4419,5.4458,5.4482,5.4503,5.4539,5.4593,5.4625,5.4688,5.4739,5.4786,5.4808,5.4804,5.4804,5.4817,5.4816,5.4809,5.4814,5.4685,5.4801,5.4801,5.48,5.4799,5.4799,5.4302,5.4342,5.4384,5.4436,5.4467,5.4503,5.4543,5.4565,5.4611,5.4665,5.467,5.4728,5.4765,5.4829,5.4852,5.4896,5.4884,5.4901,5.4906,5.491,5.4914,5.4802,5.4905,5.4904,5.4904,5.4904,5.4904,0,5.44,5.4427,5.4475,5.453,5.4571,5.4565,5.4607,5.4641,5.4692,5.4728,5.477,5.4831,5.488,5.4907,5.4956,5.4986,5.4985,5.4998,5.4996,5.5001,5.4922,5.4907,5.4998,5.4998,5.4998,5.4998,5.4998,5.4998,5.4456,5.4524,5.4538,5.462,5.4646,5.4704,5.4728,5.4761,5.479,5.4859,5.4901,5.4919,5.4951,5.5002,5.5046,5.5053,5.5071,5.5085,5.5091,5.5016,5.5007,5.4998,5.4984,5.5089,5.5089,5.5167,5.5168,5.5168]}]]